Weather History for Driggs, ID

Change the Weather History Date:

Saturday, June 2, 2012

  Actual Average (KRXE) Record (KRXE)
Temperature  
Mean Temperature 62 °F 57 °F  
Max Temperature 77 °F 71 °F 83 °F (2012)
Min Temperature 47 °F 43 °F 33 °F (2005)
Degree Days  
Heating Degree Days 3 8  
Month to date heating degree days 17  
Since 1 June heating degree days 17  
Since 1 July heating degree days 7975  
Cooling Degree Days 0 0  
Month to date cooling degree days 0  
Year to date cooling degree days 4  
Since 1 June cooling degree days 0  
Growing Degree Days 12 (Base 50)    
Moisture  
Dew Point 43 °F    
Average Humidity 49    
Maximum Humidity 74    
Minimum Humidity 26    
Precipitation  
Precipitation 0.00 in 0.07 in 0.44 in (1999)
Month to date precipitation 0.14  
Year to date precipitation 6.01  
Sea Level Pressure  
Sea Level Pressure 29.77 in    
Wind  
Wind Speed 10 mph (SSW)    
Max Wind Speed 26 mph    
Max Gust Speed 32 mph    
Visibility 10 miles    
Events Rain , Thunderstorm    
T = Trace of Precipitation, MM = Missing Value Source: NWS Daily Summary

Daily Weather History Graph

Daily Weather History Graph

Search for Another Location

Airport:

Trip Planner

Search our weather history database for the weather conditions in past years. The results will help you decide how hot, cold, wet, or windy it might be!

Date:

Astronomy

Jun. 02, 2012 Rise Set
Actual Time 5:44 AM MDT 9:00 PM MDT
Civil Twilight 5:09 AM MDT 9:36 PM MDT
Nautical Twilight 4:23 AM MDT 10:21 PM MDT
Astronomical Twilight 3:27 AM MDT 11:18 PM MDT
Moon 7:18 PM MDT (6/2) 4:08 AM MDT (6/2)
Length of Visible Light 16h 26m
Length of Day
15h 16m
Waxing Gibbous, 96% of the Moon is Illuminated
Jun 2
Waxing Gibbous
Jun 4
Full
Jun 11
Last Quarter
Jun 19
New
Jun 26
First Quarter

Hourly Weather History & Observations

Time (MDT) Temp. Dew Point Humidity Pressure Visibility Wind Dir Wind Speed Gust Speed Precip Events Conditions
12:56 AM 50.9 °F 39.9 °F 66% 29.80 in 10.0 mi SE 4.6 mph - N/A   Clear
2:56 AM 50.0 °F 38.8 °F 66% 29.77 in 10.0 mi East 4.6 mph - N/A   Clear
3:56 AM 48.9 °F 37.9 °F 66% 29.75 in 10.0 mi SE 4.6 mph - N/A   Clear
4:56 AM 47.8 °F 39.9 °F 74% 29.75 in 10.0 mi ENE 4.6 mph - N/A   Clear
5:56 AM 48.9 °F 38.8 °F 68% 29.73 in 10.0 mi East 9.2 mph - N/A   Clear
7:56 AM 61.9 °F 46.9 °F 58% 29.67 in 10.0 mi Calm Calm - N/A   Clear
8:56 AM 63.9 °F 47.8 °F 56% 29.72 in 10.0 mi South 11.5 mph - N/A   Partly Cloudy
9:44 AM 60.8 °F 46.4 °F 59% 30.02 in 10.0 mi WNW 26.5 mph 32.2 mph 0.00 in Rain , Thunderstorm Light Thunderstorms and Rain
9:56 AM 55.9 °F 45.0 °F 67% 29.84 in 10.0 mi NW 20.7 mph - 0.00 in Rain , Thunderstorm Light Thunderstorms and Rain
10:03 AM 55.4 °F 46.4 °F 72% 30.03 in 10.0 mi NNW 12.7 mph - 0.00 in Rain , Thunderstorm Light Thunderstorms and Rain
10:27 AM 57.2 °F 48.2 °F 72% 30.02 in 10.0 mi ENE 8.1 mph - 0.00 in   Scattered Clouds
10:56 AM 61.0 °F 45.0 °F 56% 29.82 in 10.0 mi North 10.4 mph - 0.00 in   Mostly Cloudy
11:22 AM 57.2 °F 46.4 °F 67% 30.01 in 10.0 mi SE 11.5 mph - 0.00 in Rain Light Rain
11:56 AM 61.9 °F 48.9 °F 62% 29.75 in 10.0 mi Variable 3.5 mph - 0.00 in   Partly Cloudy
12:56 PM 70.9 °F 45.9 °F 41% 29.72 in 10.0 mi SSW 17.3 mph - N/A   Partly Cloudy
1:10 PM 73.4 °F 42.8 °F 33% 29.95 in 10.0 mi SSW 19.6 mph - N/A   Partly Cloudy
1:56 PM 75.9 °F 43.9 °F 32% 29.69 in 10.0 mi SSW 16.1 mph - N/A   Clear
2:56 PM 73.9 °F 41.9 °F 32% 29.66 in 10.0 mi SSW 19.6 mph - N/A   Scattered Clouds
3:22 PM 75.2 °F 44.6 °F 34% 29.90 in 10.0 mi SSW 15.0 mph - N/A   Scattered Clouds
3:56 PM 77.0 °F 41.9 °F 28% 29.66 in 10.0 mi SW 11.5 mph - N/A   Mostly Cloudy
4:56 PM 77.9 °F 39.9 °F 26% 29.64 in 10.0 mi WSW 18.4 mph - N/A   Clear
5:56 PM 77.9 °F 41.9 °F 28% 29.64 in 10.0 mi WSW 23.0 mph - N/A   Mostly Cloudy
6:56 PM 75.9 °F 41.0 °F 29% 29.63 in 10.0 mi WSW 18.4 mph - N/A   Partly Cloudy
7:56 PM 74.8 °F 37.9 °F 26% 29.62 in 10.0 mi SSW 12.7 mph - N/A   Mostly Cloudy
8:56 PM 72.0 °F 37.9 °F 29% 29.64 in 10.0 mi SW 12.7 mph - N/A   Overcast
9:56 PM 70.0 °F 41.0 °F 35% 29.68 in 10.0 mi South 4.6 mph - N/A   Overcast
10:56 PM 68.0 °F 41.9 °F 39% 29.69 in 10.0 mi SSE 13.8 mph - N/A   Mostly Cloudy